Regional Weather Roundup
Issued by NWS

Home | Current Version | Previous Version | Text Only | Print | Product List | Glossary Off
Versions: 1 2 3 4 5 6 7 8 9 10 11 12 13 14 15 16 17 18 19 20 21 22 23 24 25 26 27 28 29 30 31 32 33 34 35 36 37 38 39 40 41 42 43 44 45 46 47 48 49 50

000
ASUS43 KLSX 251707
RWRMO

WEATHER SUMMARY FOR MISSOURI
NATIONAL WEATHER SERVICE SPRINGFIELD MO
1100 AM CST SUN FEB 25 2018

NOTE: "FAIR" INDICATES FEW OR NO CLOUDS BELOW 12,000 FEET WITH NO
       SIGNIFICANT WEATHER AND/OR OBSTRUCTIONS TO VISIBILITY.
       CURRENT SKY AND/OR WEATHER CONDITIONS ARE NOT AVAILABLE FOR
       CHILLICOTHE AND FARMINGTON.

MOZ001>031-035>038-043-044-053-054-251800-
...NORTHERN AND WESTERN MISSOURI...

CITY           SKY/WX    TMP DP  RH WIND       PRES   REMARKS
KANSAS CTY INT MOSUNNY   41  27  57 W10       30.08R
KANSAS C DTWN  SUNNY     44  23  43 SW9       30.08S
LEE`S SUMMIT   SUNNY     42  28  57 S12       30.08S
ST JOSEPH      SUNNY     40  30  67 SW13      30.07R
CHILLICOTHE      N/A     41  25  53 W8        30.07R
KIRKSVILLE     SUNNY     40  26  57 W7        30.04R

$$
MOZ066>068-077>081-088>096-101>105-251800-
...SOUTHWEST MISSOURI...

CITY           SKY/WX    TMP DP  RH WIND       PRES   REMARKS
SPRINGFIELD    SUNNY     44  26  49 S3        30.10S
JOPLIN         SUNNY     45  32  60 S7        30.13R
BRANSON        MOSUNNY   46  30  53 CALM      30.13R

$$
MOZ032>034-039>042-045>050-055>058-069>072-251800-
...CENTRAL MISSOURI...

CITY           SKY/WX    TMP DP  RH WIND       PRES   REMARKS
COLUMBIA       SUNNY     42  28  57 S8        30.11R
JEFFERSON CITY SUNNY     42  25  50 W5        30.13R
ROLLA          SUNNY     41  29  62 SW7       30.12R
SEDALIA        SUNNY     41  29  62 SW8       30.12R
WHITEMAN AFB   SUNNY     43  25  49 SW8       30.08R
WARRENSBURG    SUNNY     41  30  65 S9        30.11R
OSAGE BEACH    SUNNY     42  26  53 VRB3      30.14R

$$
MOZ051-052-059>065-251800-
...EAST CENTRAL MISSOURI...

CITY           SKY/WX    TMP DP  RH WIND       PRES   REMARKS
ST LOUIS INTL  MOSUNNY   44  27  51 VRB7      30.12R
SPIRIT OF STL  SUNNY     43  27  53 SW6       30.12R
ST CHARLES       N/A     42  26  53 SW7       30.11R

$$
MOZ072>076-082>087-097>100-106>115-251800-
...SOUTH CENTRAL AND SOUTHEAST MISSOURI...

CITY           SKY/WX    TMP DP  RH WIND       PRES   REMARKS
CAPE GIRARDEAU FAIR      46  34  62 W7        30.15S
FARMINGTON     SUNNY     45  28  51 NW3       30.13S
POPLAR BLUFF   FAIR      47  32  56 CALM      30.16S
WEST PLAINS    SUNNY     45  31  58 CALM      30.13S

$$



USA.gov is the U.S. government's official web portal to all federal, state and local government web resources and services.